525 VABB-VOMM

Flight info

Callsign 525
Flight time 1h 39m
Altitude 41000
Route VEVAK2A EPKOS Q9 OPAMO OPAMO2F
Aircraft C25C/M-SDE2E3FGHRWXY/LB1

Departure

Time 2026-04-27 10:28
Airport Chhatrapati Shivaji Maharaj International Airport (VABB)

Arrival

Time 2026-04-27 12:07
Airport Chennai International Airport (VOMM)
Time Latitude Longitude Altitude Speed Heading
2026-04-27 10:00 19.09694 72.87967 27 ft 0 kts 63°
2026-04-27 10:21 19.09693 72.87966 27 ft 2 kts 63°
2026-04-27 10:21 19.09685 72.87950 27 ft 2 kts 63°
2026-04-27 10:22 19.09678 72.87935 27 ft 2 kts 63°
2026-04-27 10:22 19.09670 72.87919 27 ft 2 kts 63°
2026-04-27 10:22 19.09663 72.87904 27 ft 2 kts 62°
2026-04-27 10:22 19.09656 72.87890 27 ft 1 kts 61°
2026-04-27 10:24 19.09655 72.87892 27 ft 1 kts 102°
2026-04-27 10:24 19.09638 72.87896 27 ft 8 kts 172°
2026-04-27 10:25 19.09553 72.87892 27 ft 15 kts 187°
2026-04-27 10:25 19.09457 72.87840 27 ft 17 kts 210°
2026-04-27 10:25 19.09350 72.87776 27 ft 18 kts 202°
2026-04-27 10:25 19.09223 72.87757 27 ft 20 kts 181°
2026-04-27 10:26 19.09119 72.87801 27 ft 14 kts 162°
2026-04-27 10:26 19.09021 72.87807 28 ft 14 kts 181°
2026-04-27 10:26 19.08987 72.87807 25 ft 0 kts 182°
2026-04-27 10:26 19.08984 72.87807 25 ft 1 kts 184°
2026-04-27 10:27 19.08951 72.87803 25 ft 8 kts 192°
2026-04-27 10:27 19.08891 72.87767 24 ft 12 kts 245°
2026-04-27 10:27 19.08884 72.87671 24 ft 19 kts 269°
2026-04-27 10:27 19.08862 72.87261 26 ft 96 kts 246°
2026-04-27 10:28 19.08676 72.86313 132 ft 163 kts 264°
2026-04-27 10:28 19.08746 72.84940 592 ft 206 kts 275°
2026-04-27 10:28 19.08926 72.83378 1335 ft 225 kts 278°
2026-04-27 10:28 19.09178 72.81731 2418 ft 228 kts 282°
2026-04-27 10:29 19.09486 72.80090 3557 ft 234 kts 282°
2026-04-27 10:29 19.09292 72.78356 4546 ft 244 kts 257°
2026-04-27 10:29 19.08613 72.76698 5527 ft 252 kts 236°
2026-04-27 10:29 19.07319 72.75431 6504 ft 259 kts 212°
2026-04-27 10:30 19.05595 72.74880 7471 ft 263 kts 186°
2026-04-27 10:30 19.03694 72.74852 8071 ft 284 kts 179°
2026-04-27 10:30 19.01721 72.74933 9097 ft 282 kts 178°
2026-04-27 10:30 18.99787 72.74917 10082 ft 282 kts 182°
2026-04-27 10:31 18.97814 72.74835 10962 ft 286 kts 182°
2026-04-27 10:31 18.95766 72.74760 11421 ft 307 kts 181°
2026-04-27 10:31 18.93529 72.74710 11579 ft 335 kts 181°
2026-04-27 10:31 18.91112 72.74649 11621 ft 361 kts 181°
2026-04-27 10:32 18.88520 72.74581 11646 ft 383 kts 181°
2026-04-27 10:32 18.85823 72.74502 12201 ft 381 kts 181°
2026-04-27 10:32 18.83257 72.74437 13528 ft 365 kts 181°
2026-04-27 10:32 18.80726 72.74366 13973 ft 372 kts 181°
2026-04-27 10:33 18.78132 72.74345 14484 ft 375 kts 176°
2026-04-27 10:33 18.75608 72.75023 14996 ft 377 kts 161°
2026-04-27 10:33 18.73097 72.75884 15523 ft 380 kts 162°
2026-04-27 10:33 18.70580 72.76758 16021 ft 383 kts 162°
2026-04-27 10:34 18.68039 72.77652 16519 ft 386 kts 162°
2026-04-27 10:34 18.65497 72.78541 16987 ft 389 kts 162°
2026-04-27 10:34 18.62901 72.79434 17434 ft 392 kts 162°
2026-04-27 10:34 18.60301 72.80338 17885 ft 395 kts 162°
2026-04-27 10:35 18.57686 72.81248 18285 ft 397 kts 162°
2026-04-27 10:35 18.55094 72.82147 18650 ft 399 kts 163°
2026-04-27 10:35 18.52443 72.83067 19015 ft 402 kts 163°
2026-04-27 10:35 18.49781 72.83989 19373 ft 404 kts 163°
2026-04-27 10:36 18.47101 72.84919 19724 ft 406 kts 163°
2026-04-27 10:36 18.44406 72.85853 20069 ft 409 kts 163°
2026-04-27 10:36 18.41700 72.86790 20411 ft 411 kts 163°
2026-04-27 10:36 18.38982 72.87734 20754 ft 412 kts 163°
2026-04-27 10:37 18.36251 72.88677 21067 ft 414 kts 164°
2026-04-27 10:37 18.33512 72.89627 21373 ft 416 kts 164°
2026-04-27 10:37 18.30790 72.90567 21653 ft 418 kts 164°
2026-04-27 10:37 18.28029 72.91524 21945 ft 419 kts 164°
2026-04-27 10:38 18.25261 72.92481 22215 ft 421 kts 164°
2026-04-27 10:38 18.22468 72.93445 22479 ft 422 kts 165°
2026-04-27 10:38 18.19674 72.94412 22736 ft 424 kts 165°
2026-04-27 10:38 18.16863 72.95382 22981 ft 425 kts 165°
2026-04-27 10:39 18.14085 72.96343 23213 ft 427 kts 165°
2026-04-27 10:39 18.11266 72.97314 23420 ft 428 kts 165°
2026-04-27 10:39 18.08557 72.98572 23870 ft 428 kts 152°
2026-04-27 10:39 18.06204 73.00521 24070 ft 434 kts 142°
2026-04-27 10:40 18.03960 73.02656 24298 ft 436 kts 141°
2026-04-27 10:40 18.01751 73.04837 24507 ft 438 kts 141°
2026-04-27 10:40 17.99492 73.07010 24721 ft 439 kts 142°
2026-04-27 10:40 17.97214 73.09152 24928 ft 440 kts 142°
2026-04-27 10:41 17.94948 73.11304 25148 ft 441 kts 142°
2026-04-27 10:41 17.92701 73.13463 25403 ft 441 kts 142°
2026-04-27 10:41 17.90444 73.15625 25875 ft 441 kts 142°
2026-04-27 10:41 17.88162 73.17794 26346 ft 443 kts 142°
2026-04-27 10:42 17.85872 73.19969 26823 ft 445 kts 142°
2026-04-27 10:42 17.83576 73.22163 27315 ft 446 kts 143°
2026-04-27 10:42 17.81277 73.24355 27811 ft 447 kts 143°
2026-04-27 10:42 17.78969 73.26552 28321 ft 448 kts 143°
2026-04-27 10:43 17.76658 73.28749 28834 ft 448 kts 143°
2026-04-27 10:43 17.74384 73.30912 29350 ft 448 kts 144°
2026-04-27 10:43 17.72079 73.33107 29873 ft 448 kts 144°
2026-04-27 10:43 17.69767 73.35306 30331 ft 448 kts 144°
2026-04-27 10:44 17.67460 73.37498 30791 ft 447 kts 144°
2026-04-27 10:44 17.65162 73.39682 31254 ft 446 kts 144°
2026-04-27 10:44 17.62857 73.41871 31735 ft 445 kts 144°
2026-04-27 10:44 17.60572 73.44040 32217 ft 444 kts 144°
2026-04-27 10:45 17.58283 73.46215 32712 ft 442 kts 144°
2026-04-27 10:45 17.56002 73.48377 33215 ft 440 kts 144°
2026-04-27 10:45 17.53773 73.50492 33718 ft 438 kts 144°
2026-04-27 10:45 17.51524 73.52624 34172 ft 435 kts 144°
2026-04-27 10:46 17.49288 73.54743 34620 ft 432 kts 145°
2026-04-27 10:46 17.47069 73.56847 35081 ft 429 kts 145°
2026-04-27 10:46 17.44864 73.58935 35547 ft 426 kts 145°
2026-04-27 10:46 17.42674 73.61008 36019 ft 424 kts 145°
2026-04-27 10:47 17.40491 73.63072 36502 ft 420 kts 145°
2026-04-27 10:47 17.38337 73.65115 36990 ft 417 kts 145°
2026-04-27 10:47 17.36214 73.67122 37488 ft 414 kts 145°
2026-04-27 10:47 17.34092 73.69126 37996 ft 411 kts 145°
2026-04-27 10:48 17.31974 73.71129 38515 ft 406 kts 145°
2026-04-27 10:48 17.29885 73.73104 38956 ft 402 kts 145°
2026-04-27 10:48 17.27819 73.75055 39398 ft 398 kts 144°
2026-04-27 10:48 17.25775 73.76985 39850 ft 394 kts 144°
2026-04-27 10:49 17.23749 73.78898 40311 ft 389 kts 144°
2026-04-27 10:49 17.21750 73.80784 40715 ft 388 kts 143°
2026-04-27 10:49 17.17694 73.84602 40818 ft 403 kts 143°
2026-04-27 10:50 17.13452 73.88606 40832 ft 418 kts 143°
2026-04-27 10:50 17.09071 73.92731 40838 ft 430 kts 143°
2026-04-27 10:51 17.04569 73.96972 40838 ft 441 kts 142°
2026-04-27 10:51 17.00004 74.01268 40841 ft 449 kts 142°
2026-04-27 10:52 16.95321 74.05671 40841 ft 455 kts 142°
2026-04-27 10:52 16.90657 74.10057 40840 ft 443 kts 142°
2026-04-27 10:53 16.84644 74.17212 40819 ft 431 kts 133°
2026-04-27 10:54 16.80955 74.22071 40822 ft 423 kts 133°
2026-04-27 10:54 16.77366 74.26817 40819 ft 416 kts 133°
2026-04-27 10:55 16.73804 74.31513 40818 ft 410 kts 133°
2026-04-27 10:55 16.70286 74.36155 40816 ft 406 kts 133°
2026-04-27 10:56 16.66804 74.40744 40821 ft 402 kts 133°
2026-04-27 10:56 16.63383 74.45247 40821 ft 399 kts 133°
2026-04-27 10:57 16.59958 74.49755 40818 ft 396 kts 133°
2026-04-27 10:57 16.56548 74.54242 40816 ft 394 kts 133°
2026-04-27 10:58 16.53154 74.58702 40813 ft 392 kts 133°
2026-04-27 10:58 16.49774 74.63142 40803 ft 390 kts 133°
2026-04-27 10:59 16.46428 74.67534 40805 ft 389 kts 133°
2026-04-27 10:59 16.43057 74.71952 40801 ft 399 kts 133°
2026-04-27 11:00 16.39534 74.76569 40816 ft 415 kts 133°
2026-04-27 11:00 16.37725 74.78943 40810 ft 421 kts 133°
2026-04-27 11:00 16.34027 74.83784 40814 ft 433 kts 133°
2026-04-27 11:01 16.30254 74.88721 40812 ft 443 kts 133°
2026-04-27 11:01 16.26377 74.93794 40806 ft 452 kts 133°
2026-04-27 11:02 16.22434 74.98947 40803 ft 458 kts 133°
2026-04-27 11:02 16.18495 75.04095 40803 ft 453 kts 133°
2026-04-27 11:03 16.14580 75.09197 40801 ft 455 kts 133°
2026-04-27 11:03 16.10633 75.14348 40801 ft 456 kts 133°
2026-04-27 11:04 16.06667 75.19516 40800 ft 457 kts 133°
2026-04-27 11:04 16.02740 75.24632 40797 ft 452 kts 133°
2026-04-27 11:05 15.98839 75.29708 40794 ft 448 kts 133°
2026-04-27 11:05 15.94992 75.34711 40784 ft 445 kts 133°
2026-04-27 11:06 15.91140 75.39716 40783 ft 442 kts 133°
2026-04-27 11:06 15.87309 75.44691 40781 ft 440 kts 133°
2026-04-27 11:07 15.83495 75.49639 40781 ft 438 kts 133°
2026-04-27 11:07 15.79721 75.54533 40782 ft 436 kts 133°
2026-04-27 11:08 15.75932 75.59445 40779 ft 435 kts 133°
2026-04-27 11:08 15.72148 75.64345 40778 ft 435 kts 133°
2026-04-27 11:09 15.68370 75.69234 40779 ft 434 kts 133°
2026-04-27 11:09 15.64594 75.74117 40780 ft 434 kts 133°
2026-04-27 11:10 15.60847 75.78963 40775 ft 434 kts 133°
2026-04-27 11:10 15.57074 75.83837 40774 ft 434 kts 133°
2026-04-27 11:11 15.53292 75.88718 40768 ft 434 kts 133°
2026-04-27 11:11 15.49506 75.93601 40778 ft 434 kts 133°
2026-04-27 11:12 15.45727 75.98475 40775 ft 434 kts 133°
2026-04-27 11:12 15.41971 76.03315 40769 ft 434 kts 133°
2026-04-27 11:13 15.38178 76.08197 40767 ft 435 kts 134°
2026-04-27 11:13 15.34390 76.13071 40763 ft 435 kts 134°
2026-04-27 11:14 15.30589 76.17961 40762 ft 435 kts 134°
2026-04-27 11:14 15.26814 76.22812 40762 ft 436 kts 134°
2026-04-27 11:15 15.23009 76.27696 40765 ft 436 kts 134°
2026-04-27 11:15 15.19201 76.32585 40763 ft 436 kts 134°
2026-04-27 11:16 15.15393 76.37470 40767 ft 436 kts 134°
2026-04-27 11:16 15.11602 76.42326 40770 ft 437 kts 134°
2026-04-27 11:17 15.07790 76.47210 40773 ft 437 kts 134°
2026-04-27 11:17 15.03961 76.52110 40775 ft 438 kts 134°
2026-04-27 11:18 15.00131 76.57009 40781 ft 438 kts 134°
2026-04-27 11:18 14.96323 76.61876 40781 ft 438 kts 134°
2026-04-27 11:19 14.92490 76.66773 40783 ft 438 kts 134°
2026-04-27 11:19 14.88694 76.71621 40783 ft 433 kts 134°
2026-04-27 11:20 14.84899 76.76460 40783 ft 434 kts 134°
2026-04-27 11:20 14.81098 76.81323 40787 ft 435 kts 134°
2026-04-27 11:21 14.77326 76.86174 40786 ft 436 kts 134°
2026-04-27 11:21 14.73542 76.91068 40788 ft 437 kts 134°
2026-04-27 11:22 14.69759 76.95986 40788 ft 437 kts 133°
2026-04-27 11:22 14.65987 77.00918 40793 ft 438 kts 133°
2026-04-27 11:23 14.62252 77.05830 40792 ft 438 kts 133°
2026-04-27 11:23 14.58501 77.10790 40792 ft 439 kts 133°
2026-04-27 11:24 14.55566 77.16373 40794 ft 451 kts 112°
2026-04-27 11:24 14.54086 77.22710 40797 ft 456 kts 105°
2026-04-27 11:25 14.52303 77.28906 40797 ft 451 kts 116°
2026-04-27 11:25 14.49832 77.34840 40797 ft 452 kts 116°
2026-04-27 11:26 14.47723 77.40976 40805 ft 454 kts 114°
2026-04-27 11:26 14.45458 77.47042 40807 ft 453 kts 115°
2026-04-27 11:27 14.43261 77.53107 40804 ft 454 kts 114°
2026-04-27 11:27 14.41039 77.59184 40810 ft 454 kts 115°
2026-04-27 11:28 14.38807 77.65280 40814 ft 455 kts 114°
2026-04-27 11:28 14.36577 77.71384 40816 ft 455 kts 115°
2026-04-27 11:29 14.34354 77.77443 40829 ft 455 kts 115°
2026-04-27 11:29 14.32118 77.83547 40827 ft 455 kts 115°
2026-04-27 11:30 14.29876 77.89655 40821 ft 455 kts 115°
2026-04-27 11:30 14.27634 77.95756 40821 ft 455 kts 115°
2026-04-27 11:31 14.25408 78.01810 40814 ft 455 kts 115°
2026-04-27 11:31 14.23160 78.07922 40803 ft 455 kts 115°
2026-04-27 11:32 14.20921 78.13998 40804 ft 455 kts 115°
2026-04-27 11:32 14.18670 78.20105 40810 ft 455 kts 115°
2026-04-27 11:33 14.17557 78.23121 40694 ft 459 kts 115°
2026-04-27 11:33 14.16421 78.26196 40567 ft 461 kts 115°
2026-04-27 11:33 14.15280 78.29293 40442 ft 463 kts 115°
2026-04-27 11:33 14.14131 78.32402 40326 ft 465 kts 115°
2026-04-27 11:34 14.12978 78.35523 40201 ft 467 kts 115°
2026-04-27 11:34 14.11818 78.38659 40087 ft 468 kts 115°
2026-04-27 11:34 14.10660 78.41792 39981 ft 470 kts 115°
2026-04-27 11:34 14.09493 78.44944 39878 ft 471 kts 115°
2026-04-27 11:35 14.07178 78.51199 39692 ft 472 kts 115°
2026-04-27 11:35 14.05999 78.54378 39498 ft 475 kts 115°
2026-04-27 11:35 14.04817 78.57567 39266 ft 479 kts 115°
2026-04-27 11:36 14.03539 78.60744 39039 ft 478 kts 121°
2026-04-27 11:36 14.01926 78.63725 38815 ft 477 kts 126°
2026-04-27 11:36 13.98520 78.69544 38746 ft 471 kts 126°
2026-04-27 11:37 13.95222 78.75206 38739 ft 448 kts 126°
2026-04-27 11:37 13.93645 78.77907 38483 ft 435 kts 126°
2026-04-27 11:37 13.92085 78.80558 37817 ft 432 kts 126°
2026-04-27 11:38 13.90539 78.83197 37234 ft 428 kts 126°
2026-04-27 11:38 13.89026 78.85788 36695 ft 423 kts 125°
2026-04-27 11:38 13.87507 78.88387 36147 ft 420 kts 125°
2026-04-27 11:38 13.86009 78.90944 35639 ft 416 kts 124°
2026-04-27 11:39 13.84521 78.93481 35129 ft 412 kts 124°
2026-04-27 11:39 13.83046 78.95997 34657 ft 408 kts 124°
2026-04-27 11:39 13.81608 78.98454 34204 ft 405 kts 123°
2026-04-27 11:39 13.80161 79.00923 33740 ft 402 kts 123°
2026-04-27 11:40 13.78722 79.03375 33241 ft 398 kts 123°
2026-04-27 11:40 13.77296 79.05808 32773 ft 395 kts 123°
2026-04-27 11:40 13.75886 79.08210 32324 ft 391 kts 123°
2026-04-27 11:40 13.74491 79.10588 31887 ft 387 kts 122°
2026-04-27 11:41 13.73105 79.12949 31449 ft 383 kts 122°
2026-04-27 11:41 13.71731 79.15290 31016 ft 380 kts 122°
2026-04-27 11:41 13.70387 79.17575 30607 ft 378 kts 122°
2026-04-27 11:41 13.69032 79.19883 30183 ft 375 kts 122°
2026-04-27 11:42 13.67691 79.22166 29776 ft 372 kts 122°
2026-04-27 11:42 13.66360 79.24430 29320 ft 369 kts 122°
2026-04-27 11:42 13.65034 79.26683 28885 ft 365 kts 122°
2026-04-27 11:42 13.63733 79.28895 28459 ft 362 kts 122°
2026-04-27 11:43 13.62428 79.31115 28059 ft 358 kts 122°
2026-04-27 11:43 13.61145 79.33295 27652 ft 355 kts 122°
2026-04-27 11:43 13.59889 79.35429 27273 ft 352 kts 121°
2026-04-27 11:43 13.58628 79.37569 26904 ft 349 kts 121°
2026-04-27 11:44 13.57377 79.39694 26521 ft 346 kts 121°
2026-04-27 11:44 13.56138 79.41799 26167 ft 343 kts 121°
2026-04-27 11:44 13.54907 79.43885 25812 ft 340 kts 121°
2026-04-27 11:44 13.53687 79.45959 25469 ft 337 kts 121°
2026-04-27 11:45 13.52477 79.48009 25137 ft 335 kts 121°
2026-04-27 11:45 13.51681 79.49361 24922 ft 333 kts 121°
2026-04-27 11:45 13.50100 79.52042 24495 ft 330 kts 121°
2026-04-27 11:45 13.48914 79.54050 24180 ft 327 kts 121°
2026-04-27 11:46 13.47741 79.56041 23875 ft 325 kts 121°
2026-04-27 11:46 13.46572 79.58019 23552 ft 323 kts 121°
2026-04-27 11:46 13.45398 79.60008 22981 ft 329 kts 121°
2026-04-27 11:46 13.44205 79.62032 22302 ft 332 kts 121°
2026-04-27 11:47 13.43017 79.64040 21642 ft 326 kts 121°
2026-04-27 11:47 13.41654 79.65846 20990 ft 321 kts 133°
2026-04-27 11:47 13.40127 79.67496 20350 ft 316 kts 133°
2026-04-27 11:47 13.38646 79.69104 19739 ft 312 kts 132°
2026-04-27 11:48 13.37177 79.70724 19128 ft 309 kts 132°
2026-04-27 11:48 13.35719 79.72330 18529 ft 306 kts 132°
2026-04-27 11:48 13.34280 79.73909 17933 ft 303 kts 132°
2026-04-27 11:48 13.32842 79.75486 17250 ft 301 kts 132°
2026-04-27 11:49 13.31412 79.77054 16582 ft 299 kts 131°
2026-04-27 11:49 13.29997 79.78607 15930 ft 297 kts 131°
2026-04-27 11:49 13.28592 79.80149 15291 ft 295 kts 131°
2026-04-27 11:49 13.27206 79.81669 14674 ft 294 kts 131°
2026-04-27 11:50 13.25815 79.83193 14063 ft 292 kts 131°
2026-04-27 11:50 13.24430 79.84712 13452 ft 291 kts 130°
2026-04-27 11:50 13.23050 79.86224 12773 ft 289 kts 130°
2026-04-27 11:50 13.21681 79.87724 12115 ft 288 kts 130°
2026-04-27 11:51 13.20318 79.89218 11470 ft 286 kts 130°
2026-04-27 11:51 13.18958 79.90708 10761 ft 287 kts 130°
2026-04-27 11:51 13.16225 79.93703 9364 ft 288 kts 129°
2026-04-27 11:52 13.14863 79.95193 8661 ft 286 kts 130°
2026-04-27 11:52 13.13527 79.96654 7992 ft 284 kts 130°
2026-04-27 11:52 13.12179 79.98129 7335 ft 282 kts 129°
2026-04-27 11:52 13.10845 79.99588 6797 ft 278 kts 130°
2026-04-27 11:53 13.09578 80.00976 6709 ft 256 kts 130°
2026-04-27 11:53 13.08398 80.02262 6687 ft 238 kts 129°
2026-04-27 11:53 13.07305 80.03459 6687 ft 224 kts 129°
2026-04-27 11:53 13.06319 80.04638 6686 ft 210 kts 116°
2026-04-27 11:54 13.05944 80.06022 6507 ft 203 kts 89°
2026-04-27 11:54 13.06257 80.07470 5931 ft 216 kts 66°
2026-04-27 11:54 13.06789 80.08892 5636 ft 217 kts 68°
2026-04-27 11:54 13.07323 80.10340 5300 ft 218 kts 69°
2026-04-27 11:55 13.07859 80.11801 4995 ft 219 kts 69°
2026-04-27 11:55 13.08399 80.13268 4698 ft 220 kts 69°
2026-04-27 11:55 13.08933 80.14727 4358 ft 214 kts 69°
2026-04-27 11:55 13.09459 80.16163 3787 ft 213 kts 70°
2026-04-27 11:56 13.09954 80.17505 3715 ft 191 kts 71°
2026-04-27 11:56 13.10400 80.18723 3702 ft 173 kts 71°
2026-04-27 11:56 13.10804 80.19824 3700 ft 158 kts 71°
2026-04-27 11:56 13.11172 80.20832 3699 ft 148 kts 71°
2026-04-27 11:57 13.11524 80.21793 3701 ft 140 kts 71°
2026-04-27 11:57 13.11863 80.22720 3645 ft 139 kts 71°
2026-04-27 11:57 13.12210 80.23665 3569 ft 141 kts 71°
2026-04-27 11:57 13.12545 80.24586 3516 ft 139 kts 71°
2026-04-27 11:58 13.12894 80.25541 3410 ft 142 kts 72°
2026-04-27 11:58 13.13251 80.26499 3457 ft 158 kts 69°
2026-04-27 11:58 13.13679 80.27565 3678 ft 168 kts 70°
2026-04-27 11:58 13.14116 80.28717 3745 ft 178 kts 70°
2026-04-27 11:59 13.14584 80.29933 3756 ft 186 kts 70°
2026-04-27 11:59 13.15060 80.31157 3739 ft 183 kts 70°
2026-04-27 11:59 13.15530 80.32365 3737 ft 181 kts 70°
2026-04-27 11:59 13.15992 80.33555 3738 ft 179 kts 70°
2026-04-27 12:00 13.16247 80.34774 3732 ft 175 kts 95°
2026-04-27 12:00 13.15920 80.35963 3724 ft 172 kts 120°
2026-04-27 12:00 13.15115 80.36846 3721 ft 170 kts 146°
2026-04-27 12:00 13.14024 80.37260 3722 ft 168 kts 172°
2026-04-27 12:01 13.12873 80.37365 3705 ft 168 kts 174°
2026-04-27 12:01 13.11702 80.37467 3655 ft 171 kts 175°
2026-04-27 12:01 13.10474 80.37579 3412 ft 182 kts 174°
2026-04-27 12:01 13.09199 80.37689 3316 ft 182 kts 175°
2026-04-27 12:02 13.07939 80.37669 3212 ft 183 kts 195°
2026-04-27 12:02 13.06864 80.36998 3141 ft 184 kts 223°
2026-04-27 12:02 13.06163 80.35898 3045 ft 186 kts 243°
2026-04-27 12:02 13.05672 80.34673 2972 ft 185 kts 245°
2026-04-27 12:03 13.05211 80.33456 2904 ft 184 kts 246°
2026-04-27 12:03 13.04747 80.32220 2727 ft 188 kts 245°
2026-04-27 12:03 13.04277 80.30964 2496 ft 186 kts 245°
2026-04-27 12:03 13.03831 80.29768 2261 ft 174 kts 245°
2026-04-27 12:04 13.03411 80.28641 2040 ft 164 kts 245°
2026-04-27 12:04 13.03043 80.27636 1849 ft 132 kts 242°
2026-04-27 12:04 13.02734 80.26812 1670 ft 121 kts 240°
2026-04-27 12:04 13.02426 80.26011 1430 ft 121 kts 244°
2026-04-27 12:05 13.02129 80.25205 1185 ft 123 kts 243°
2026-04-27 12:05 13.01826 80.24407 1147 ft 121 kts 243°
2026-04-27 12:05 13.01518 80.23585 1070 ft 128 kts 242°
2026-04-27 12:05 13.01190 80.22696 937 ft 140 kts 245°
2026-04-27 12:06 13.00829 80.21741 757 ft 142 kts 243°
2026-04-27 12:06 13.00481 80.20799 588 ft 144 kts 243°
2026-04-27 12:06 13.00122 80.19844 397 ft 140 kts 245°
2026-04-27 12:06 12.99849 80.18995 514 ft 117 kts 247°
2026-04-27 12:07 12.99519 80.18165 275 ft 130 kts 238°
2026-04-27 12:07 12.99234 80.17411 150 ft 99 kts 245°
2026-04-27 12:07 12.98985 80.16816 50 ft 79 kts 244°
2026-04-27 12:07 12.98873 80.16517 48 ft 25 kts 249°
2026-04-27 12:08 12.98785 80.16391 50 ft 19 kts 224°
2026-04-27 12:08 12.98687 80.16318 49 ft 15 kts 190°
2026-04-27 12:08 12.98629 80.16369 48 ft 10 kts 95°
2026-04-27 12:08 12.98642 80.16430 49 ft 8 kts 66°
2026-04-27 12:09 12.98664 80.16490 48 ft 10 kts 71°
2026-04-27 12:09 12.98689 80.16559 50 ft 10 kts 64°
2026-04-27 12:09 12.98716 80.16630 50 ft 11 kts 66°
2026-04-27 12:09 12.98732 80.16706 51 ft 10 kts 113°
2026-04-27 12:10 12.98680 80.16745 51 ft 9 kts 161°
2026-04-27 12:10 12.98624 80.16765 48 ft 8 kts 169°
2026-04-27 12:10 12.98584 80.16742 50 ft 6 kts 245°
2026-04-27 12:10 12.98572 80.16705 47 ft 4 kts 274°
2026-04-27 12:11 12.98582 80.16692 50 ft 1 kts 338°
2026-04-27 12:11 12.98587 80.16691 50 ft 0 kts 343°
2026-04-27 12:11 12.98592 80.16689 50 ft 3 kts 344°
2026-04-27 12:11 12.98630 80.16678 50 ft 6 kts 343°
2026-04-27 12:12 12.98637 80.16676 48 ft 1 kts 343°
2026-04-27 12:12 12.98646 80.16672 50 ft 0 kts 301°
2026-04-27 12:12 12.98639 80.16665 48 ft 5 kts 206°
2026-04-27 12:12 12.98564 80.16673 50 ft 11 kts 105°
2026-04-27 12:13 12.98612 80.16683 50 ft 9 kts 336°
2026-04-27 12:13 12.98639 80.16675 49 ft 1 kts 346°
2026-04-27 12:13 12.98645 80.16673 50 ft 4 kts 346°
2026-04-27 12:13 12.98663 80.16668 48 ft 0 kts 346°